User: anonymous   Login
Location: Unspecified
(0.0000°N, 0.0000°E)
Time: 04:37:09
(UTC+00:00)
Language:

NOAA 1 - Orbit

View from above orbital plane
View from above orbital plane
View from above satellite
View from above satellite

Ground track
Ground track

The orbit data is extracted from the following two-line orbital elements,

1  4793U 70106A   18020.24772258 -.00000029 +00000-0 +10181-3 0  9991
2  4793 101.7736 089.0488 0032027 199.0734 204.5134 12.53983977156368
Epoch (UTC): 20 January 2018 05:56:43
Eccentricity: 0.0032027
inclination: 101.7736°
perigee height: 1423 km
apogee height: 1473 km
right ascension of ascending node: 89.0488°
argument of perigee: 199.0734°
revolutions per day: 12.53983977
mean anomaly at epoch: 204.5134°
orbit number at epoch: 15636

The dashed part of the orbit path shows where the satellite is in the earth's shadow,  

DLR